Погода в Евлахе

Погода в Евлахе : погода сейчас, прогноз погоды и архив. Всё, что Вы хотите узнать о погоде в Евлахе!

Поиск расширенной информации на нашем сайте:

Другие новости

Новости СМИ2

Главная страница сайта

Новости сайта

03.07.2017

Напоминаем, что на нашем специализированном сайте Метеоцентр.Азия вы можете получить высокодетализированные автоматические прогнозы погоды по пунктам России, СНГ и мира в авиационном формате (включающие направление и скорость ветра, видимость, явления погоды, количество и форму облачности, нижнюю и верхнюю границу облачности).


Погода в Евлахе - сегодня

Время (UTC), дата Ветер
(°,м/с) 
Видим.   Явления Облачность Т
(°С)
Тd
(°С)
f(%) Тe
(°С)
Pmin
(гПа)
dP
(гПа)
Po
(мм)
O2
(г/м3)
Тmin Tmax R s Состояние
почвы
09 18.11.17 тихо ()   10 км    10/10 600 м 
[Sc]
+13.1 +9.8 80 +14  1026.3  -1.2  768  294           
12 18.11.17 350 (С) 20000 м    3/0 средняя 
[Ac trans]
+15.2 +10 71 +18  1024  -2.3  767  291           
15 18.11.17 тихо ()   10 км    ясно 
+11.7 +9.3 85 +12  1023.3  -0.7  766  294           
18 18.11.17 240 (ЮЗ) 10 км    ясно 
+9.5 +7.1 85 +10  1023.5  0.2  766  297    +15.3       
21 18.11.17 270 (З) 4000 м  дымка  ясно 
+6 +4.6 91 +7  1022.5  -1  766  301           
00 19.11.17 010 (С) 4000 м  дымка  ясно 
+5.2 +4 92 +6  1021.7  -0.8  765  302           
03 19.11.17 320 (СЗ) 4000 м  дымка  ясно 
+5.2 +3.8 91 +5  1020.7  -1  764  302           
09 19.11.17 050 (СВ) 10 км    5/0 верхняя 
[Ci]
+14.1 +9.2 72 +15  1019.5  -2.2  763  291           
12 19.11.17 010 (С) 10 км    5/0 верхняя 
[Ci]
+15.6 +8.1 61 +17  1017.3  -2.2  762  289           
15 19.11.17 тихо ()   10 км    ясно 
+10.6 +8.1 85 +11  1017.1  -0.2  761  294           
21 19.11.17 тихо ()   0200 м  туман  н/о 
+6.9 +6 94 +7  1016.4  -0.5  761  298           
00 20.11.17 280 (З) 2000 м  дымка{туман}  ясно 
+6.9 +6 94 +8  1016.3  -0.1  761  298           
03 20.11.17 тихо ()   4000 м  дымка  ясно 
+7 +6.1 94 +7  1014.7  -1.6  760  297           
09 20.11.17 350 (С) 4000 м  дымка  ясно 
+17.5 +7.4 51 +18  1013.5  -1.6  759  286           
12 20.11.17 тихо ()   10 км    ясно 
+20.1 +9.4 50 +20  1012.2  -1.2  758  283           
15 20.11.17 120 (ЮВ) 10 км    ясно 
+12.6 +9.3 80 +14  1012.5  0.2  758  290           
21 20.11.17 150 (ЮВ) 0200 м  туман  ясно 
+6.4 +5.5 94 +7  1011.9  -0.5  758  297           
00 21.11.17 260 (З) 1000 м  дымка{туман}  ясно 
+7.4 +6.5 94 +7  1010.7  -1.2  757  296           
03 21.11.17 250 (З) 4000 м  дымка{туман}  ясно 
+7.7 +6.8 94 +8  1009.5  -1.2  756  295           
06 21.11.17 280 (З) 2000 м  дымка  8/8 600 м 
[Sc]
+9.7 +8.5 92 +11  1009.5  756  293  +5.9         
09 21.11.17 350 (С) 4000 м  дымка  8/8 600 м 
[Sc]
+13.7 +8.5 71 +14  1007  -2.4  754  288           
12 21.11.17 тихо ()   10 км    8/8 600 м 
[Sc]
+14.2 +9.9 75 +15  1004.7  -2.3  752  286           
15 21.11.17 тихо ()   10 км    ясно 
+10.1 +7.1 82 +10  1003.5  -1.3  751  291           
21 21.11.17 340 (С) 4000 м  дымка  ясно 
+8 +6.7 91 +8  1002  -1.2  750  293           
00 22.11.17 340 (С) 4000 м  дымка  ясно 
+8.1 +6.4 89 +7  1001.9  -0.1  750  292           
Время (UTC), дата Ветер
(°,м/с) 
Видим.   Явления Облачность Т
(°С)
Тd
(°С)
f(%) Тe
(°С)
Pmin
(гПа)
dP
(гПа)
Po
(мм)
O2
(г/м3)
Тmin Tmax R s Состояние
почвы

Для получения пояснительной информации подведите курсор к названию столбца.

ПОГОДА в Евлахе - архив

Всё, что Вы хотите узнать о погоде в Евлахе - удобно и подробно!

Выберите нужную дату (начиная с 1 января 2015* года) и нажмите кнопку "Найти".
Будут отображены архивные сводки погоды по пункту Евлах, начиная с указанной даты.


Отображать данные в формате CSV (для использования в таблицах Excel)


Внимание! Наш архив погоды предназначен исключительно для личного некоммерческого использования в познавательных целях. Если Вам необходимы официальные справки о состоянии погоды (для производственных, юридических, коммерческих и т.п. целей), обращайтесь в органы Росгидромета.

*Примечание: данная дата относится к архиву по метеостанциям СССР (Россия, СНГ, Балтия).
Архив по метеостанциям Зарубежной Европы и Азии (кроме Китая) хранится 10 дней, по другим регионам земного шара (Китай, Африка, Америка, Австралия, Океания) - 1 день.

Евлах - район местоположения метеостанции


Название, широта, долгота, высота метеостанции:
Евлах (АМСГ) 40.6°ш. 47.2°д. 15 м над ур. моря [Азербайджан]

Дополнительная информация

В oтличие oт бoльшинства пoгoдных сайтoв мы публикуем пoдрoбную метеoинфoрмацию в детальнoм прoфессиoнальнoм фoрмате.

Характеристики температуры и влажнoсти вoздуха измеряются на высoте 2 м в тени вдали oт зданий и деревьев.
Скoрoсть ветра измеряется на высoте 10 м (на урoвне рoста челoвека скoрoсть ветра ниже в 1.5-2 раза). Если метеoстанция нахoдится в гoрoде или в лесу, тo скoрoсть ветра занижена на 2-4 м/с пo сравнению с oткрытым местoм. Скoрoсть ветра над акватoриями крупных рек и oзёр, а также на вершинах хoлмoв на 2-5 м/с выше, чем в oбычных услoвиях.
Атмoсфернoе давление в разных тoчках местнoсти мoжет значительнo oтличаться oт давления на метеoстанции, в зависимoсти oт услoвий рельефа (при пoдъёме на 10 м давление пoнижается примернo на 1 мм рт.ст.).